Location: Ash Swamp
(41.5170°N, 74.6157°W)
Time: 02:39:29
(UTC+00:00)

CZ-2C R/B - Pass Details

Date: 14 July 2020
Orbit: 502 x 567 km, 97.7° (Epoch: 14 August)

Event Time Altitude Azimuth Distance (km) Brightness Sun altitude
Rises 08:33:30 0° 10° (N) 2,776 7.3 -10.5°
Reaches altitude 10° 08:35:40 10° 8° (N) 1,874 6.3 -10.2°
Maximum altitude 08:39:43 71° 284° (WNW) 601 2.9 -9.6°
Drops below altitude 10° 08:43:41 10° 201° (SSW) 1,844 5.0 -9.1°
Enters shadow 08:44:00 - 201° (SSW) 1,973 5.1 -9.0°
